Change the Weather History Date:

Sunday, December 29, 2013

  Actual Average Record
Temperature  
Mean Temperature 9 °F -  
Max Temperature 17 °F 28 °F 49 °F (1980)
Min Temperature 1 °F 9 °F -11 °F (1987)
Degree Days  
Heating Degree Days 56    
Moisture  
Dew Point 2 °F    
Average Humidity 78    
Maximum Humidity 88    
Minimum Humidity 67    
Precipitation  
Precipitation 0.00 in - - ()
Sea Level Pressure  
Sea Level Pressure 30.45 in    
Wind  
Wind Speed 2 mph (WNW)    
Max Wind Speed 10 mph    
Max Gust Speed -    
Visibility 2 miles    
Events Fog , Snow    
Averages and records for this station are not official NWS values.
T = Trace of Precipitation, MM = Missing Value Source: NWS Daily Summary

Daily Weather History Graph

Daily Weather History Graph

Search for Another Location

Airport or City:

Trip Planner

Search our weather history database for the weather conditions in past years. The results will help you decide how hot, cold, wet, or windy it might be!

Date:

Astronomy

Dec. 29, 2013 Rise Set
Actual Time 7:54 AM MST 5:05 PM MST
Civil Twilight 7:22 AM MST 5:36 PM MST
Nautical Twilight 6:47 AM MST 6:11 PM MST
Astronomical Twilight 6:13 AM MST 6:45 PM MST
Moon 4:40 AM MST (12/29) 2:47 PM MST (12/29)
Length of Visible Light 10h 13m
Length of Day
9h 10m
Waning Crescent, 10% of the Moon is Illuminated
Dec 29
Waning Crescent
Jan 1
New
Jan 7
First Quarter
Jan 15
Full
Jan 23
Last Quarter

Hourly Weather History & Observations

Time (MST) Temp. Windchill Dew Point Humidity Pressure Visibility Wind Dir Wind Speed Gust Speed Precip Events Conditions
12:51 AM 3.0 °F - -2.0 °F 80% 30.51 in 0.2 mi Calm Calm - N/A   Haze
1:51 AM 3.0 °F - -2.0 °F 80% 30.52 in 0.2 mi Calm Calm - N/A   Haze
2:51 AM 1.9 °F - -4.0 °F 76% 30.54 in 0.2 mi Calm Calm - N/A   Haze
3:51 AM 5.0 °F - -0.0 °F 80% 30.54 in 0.2 mi Calm Calm - N/A   Haze
4:51 AM 6.1 °F - 1.0 °F 80% 30.53 in 0.2 mi Calm Calm - N/A   Haze
5:51 AM 7.0 °F - 1.9 °F 80% 30.56 in 0.2 mi Calm Calm - N/A   Haze
6:51 AM 5.0 °F - -0.0 °F 80% 30.59 in 0.2 mi Calm Calm - N/A   Haze
7:51 AM 6.1 °F - -0.0 °F 76% 30.58 in 0.2 mi Calm Calm - N/A   Haze
8:51 AM 5.0 °F -4.1 °F -0.9 °F 76% 30.66 in 0.2 mi NNE 4.6 mph - N/A   Haze
9:51 AM 7.0 °F -7.5 °F 1.0 °F 77% 30.63 in 0.2 mi SW 10.4 mph - 0.00 in Snow Heavy Snow
10:23 AM 10.9 °F - 3.9 °F 73% 30.40 in 1.8 mi Calm Calm - 0.00 in   Haze
10:30 AM 10.9 °F 4.7 °F 3.0 °F 70% 30.40 in 2.0 mi NNE 3.5 mph - 0.00 in   Haze
10:40 AM 10.9 °F 1.4 °F 1.9 °F 67% 30.40 in 1.5 mi North 5.8 mph - 0.00 in   Haze
10:45 AM 10.0 °F 0.4 °F 1.9 °F 70% 30.39 in 1.0 mi North 5.8 mph - 0.00 in   Haze
10:51 AM 9.0 °F -0.9 °F 1.9 °F 73% 30.62 in 0.2 mi North 5.8 mph - 0.00 in   Haze
11:16 AM 10.9 °F 1.4 °F 3.9 °F 73% 30.38 in 1.2 mi NW 5.8 mph - N/A   Haze
11:25 AM 10.9 °F 1.4 °F 3.0 °F 70% 30.38 in 0.5 mi NW 5.8 mph - N/A   Haze
11:46 AM 12.0 °F 4.1 °F 5.0 °F 73% 30.38 in 1.0 mi NNW 4.6 mph - N/A   Haze
11:51 AM 12.9 °F 3.8 °F 5.0 °F 71% 30.60 in 1.0 mi NNW 5.8 mph - N/A   Haze
12:01 PM 12.9 °F 5.2 °F 5.0 °F 71% 30.38 in 2.0 mi NNW 4.6 mph - N/A   Haze
12:19 PM 15.1 °F 7.7 °F 8.1 °F 74% 30.37 in 3.0 mi West 4.6 mph - N/A   Haze
12:29 PM 14.0 °F 3.9 °F 7.0 °F 74% 30.37 in 2.5 mi West 6.9 mph - N/A   Haze
12:51 PM 15.1 °F 9.4 °F 8.1 °F 74% 30.58 in 2.5 mi WSW 3.5 mph - N/A   Haze
1:06 PM 15.1 °F 6.4 °F 8.1 °F 74% 30.37 in 3.0 mi SW 5.8 mph - N/A   Haze
1:51 PM 17.1 °F 11.7 °F 10.0 °F 74% 30.56 in 4.0 mi SW 3.5 mph - N/A   Haze
2:51 PM 17.1 °F - 10.0 °F 74% 30.54 in 5.0 mi Calm Calm - N/A   Haze
3:51 PM 16.0 °F - 9.0 °F 74% 30.53 in 5.0 mi Calm Calm - N/A   Haze
4:51 PM 12.9 °F - 8.1 °F 81% 30.51 in 6.0 mi Calm Calm - N/A   Haze
5:51 PM 10.0 °F - 6.1 °F 84% 30.52 in 6.0 mi Calm Calm - N/A   Clear
6:51 PM 9.0 °F - 6.1 °F 88% 30.54 in 3.0 mi Calm Calm - N/A   Clear
7:51 PM 10.0 °F - 6.1 °F 84% 30.53 in 6.0 mi Calm Calm - N/A   Clear
8:12 PM 3.0 °F -6.4 °F -0.0 °F 87% 30.32 in 2.5 mi West 4.6 mph - N/A   Partly Cloudy
8:15 PM 3.0 °F -9.3 °F -0.9 °F 84% 30.33 in 1.0 mi WNW 6.9 mph - N/A   Mist
8:20 PM 1.0 °F -8.7 °F -2.9 °F 83% 30.33 in 0.5 mi WNW 4.6 mph - N/A Fog Light Freezing Fog
8:37 PM 3.0 °F - -2.0 °F 80% 30.33 in 1.8 mi Calm Calm - N/A   Haze
8:42 PM 3.0 °F - -0.9 °F 84% 30.33 in 2.5 mi Calm Calm - N/A   Mostly Cloudy
8:51 PM 3.0 °F - -2.0 °F 80% 30.57 in 2.5 mi Calm Calm - N/A   Haze
8:58 PM 5.0 °F - 1.0 °F 84% 30.33 in 1.0 mi Calm Calm - N/A   Mist
9:04 PM 3.9 °F -3.4 °F 1.0 °F 88% 30.33 in 0.2 mi ESE 3.5 mph - N/A Fog Light Freezing Fog
9:21 PM 6.1 °F - 1.0 °F 80% 30.33 in 2.0 mi Calm Calm - N/A   Haze
9:26 PM 5.0 °F - -0.0 °F 80% 30.33 in 6.0 mi Calm Calm - N/A   Haze
9:51 PM 3.0 °F -8.0 °F -2.0 °F 80% 30.55 in 4.0 mi SW 5.8 mph - N/A   Haze
10:01 PM 3.9 °F -5.3 °F -0.9 °F 80% 30.32 in 2.5 mi SW 4.6 mph - N/A   Haze
10:10 PM 3.0 °F - -2.0 °F 80% 30.32 in 4.0 mi Calm Calm - N/A   Haze
10:27 PM 1.9 °F -5.6 °F -4.0 °F 76% 30.33 in 4.0 mi East 3.5 mph - N/A   Haze
10:32 PM 3.0 °F - -2.0 °F 80% 30.33 in 4.0 mi Calm Calm - N/A   Haze
10:51 PM 3.0 °F - -2.0 °F 80% 30.56 in 4.0 mi Calm Calm - N/A   Haze
11:00 PM 3.9 °F - -0.0 °F 84% 30.34 in 2.0 mi Calm Calm - N/A   Overcast
11:05 PM 1.9 °F - -2.0 °F 83% 30.34 in 1.0 mi Calm Calm - N/A   Mist
11:11 PM 5.0 °F - 1.0 °F 84% 30.34 in 0.2 mi Calm Calm - N/A Fog Light Freezing Fog
11:51 PM 1.9 °F - -0.9 °F 88% 30.57 in 0.2 mi Calm Calm - N/A Fog Light Freezing Fog